Weather History for KLWA - January, 2013

Change the Weather History Date:

Thursday, January 3, 2013

  Actual Average (KBIV) Record (KBIV)
Temperature  
Mean Temperature 24 °F 27 °F  
Max Temperature 32 °F 33 °F 57 °F (1950)
Min Temperature 17 °F 22 °F -7 °F (2014)
Degree Days  
Heating Degree Days 40 38  
Month to date heating degree days 113  
Since 1 July heating degree days 2381  
Cooling Degree Days 0 0  
Month to date cooling degree days 0  
Year to date cooling degree days 0  
Moisture  
Dew Point 21 °F    
Average Humidity 76    
Maximum Humidity 83    
Minimum Humidity 64    
Precipitation  
Precipitation 0.00 in 0.07 in 0.86 in (1950)
Month to date precipitation 0.23  
Year to date precipitation 0.23  
Sea Level Pressure  
Sea Level Pressure 30.11 in    
Wind  
Wind Speed 9 mph (WSW)    
Max Wind Speed 16 mph    
Max Gust Speed 26 mph    
Visibility 9 miles    
Events Snow    
T = Trace of Precipitation, MM = Missing Value Source: NWS Daily Summary

Daily Weather History Graph

Daily Weather History Graph

Search for Another Location

Airport or City:

Trip Planner

Search our weather history database for the weather conditions in past years. The results will help you decide how hot, cold, wet, or windy it might be!

Date:

Astronomy

Jan. 03, 2013 Rise Set
Actual Time 8:14 AM EST 5:25 PM EST
Civil Twilight 7:42 AM EST 5:56 PM EST
Nautical Twilight 7:07 AM EST 6:32 PM EST
Astronomical Twilight 6:33 AM EST 7:06 PM EST
Moon No Moon Rise 11:17 AM EST (1/3)
Length of Visible Light 10h 14m
Length of Day
9h 10m
Waning Gibbous, 65% of the Moon is Illuminated
Jan 3
Waning Gibbous
Jan 4
Last Quarter
Jan 11
New
Jan 18
First Quarter
Jan 26
Full

Hourly Weather History & Observations

Time (EST) Temp. Windchill Dew Point Humidity Pressure Visibility Wind Dir Wind Speed Gust Speed Precip Events Conditions
12:14 AM 17.6 °F 8.2 °F 8.4 °F 67% 30.11 in 10.0 mi South 6.9 mph - N/A   Scattered Clouds
12:35 AM 17.6 °F 9.3 °F 8.1 °F 66% 30.11 in 10.0 mi South 5.8 mph - N/A   Scattered Clouds
12:48 AM 17.6 °F 8.2 °F 8.2 °F 67% 30.10 in 10.0 mi South 6.9 mph - N/A   Scattered Clouds
1:14 AM 18.1 °F 8.9 °F 7.9 °F 64% 30.09 in 10.0 mi South 6.9 mph - N/A   Overcast
1:35 AM 18.1 °F 8.9 °F 8.4 °F 66% 30.08 in 10.0 mi South 6.9 mph - N/A   Overcast
1:54 AM 18.3 °F 8.2 °F 8.6 °F 66% 30.09 in 10.0 mi South 8.1 mph - N/A   Overcast
2:13 AM 18.5 °F 10.4 °F 9.5 °F 68% 30.08 in 10.0 mi South 5.8 mph - N/A   Overcast
2:34 AM 19.4 °F 10.4 °F 10.4 °F 68% 30.09 in 10.0 mi South 6.9 mph - N/A   Overcast
2:54 AM 19.6 °F 10.6 °F 10.9 °F 69% 30.08 in 10.0 mi South 6.9 mph - N/A   Overcast
3:13 AM 20.1 °F 12.3 °F 11.5 °F 69% 30.08 in 10.0 mi South 5.8 mph - N/A   Overcast
3:32 AM 20.3 °F 12.5 °F 12.0 °F 70% 30.08 in 10.0 mi South 5.8 mph - N/A   Overcast
3:55 AM 20.8 °F 12.1 °F 12.7 °F 71% 30.07 in 10.0 mi South 6.9 mph - N/A   Overcast
4:13 AM 21.0 °F 11.4 °F 13.1 °F 71% 30.07 in 10.0 mi South 8.1 mph - N/A   Overcast
4:34 AM 21.2 °F 12.6 °F 13.5 °F 72% 30.07 in 10.0 mi South 6.9 mph - N/A   Overcast
4:54 AM 21.2 °F 11.7 °F 13.8 °F 73% 30.06 in 10.0 mi South 8.1 mph - N/A Snow Light Snow
5:11 AM 21.2 °F 12.6 °F 14.7 °F 76% 30.06 in 5.0 mi SSW 6.9 mph - N/A Snow Light Snow
5:35 AM 21.0 °F 13.4 °F 16.3 °F 82% 30.06 in 4.0 mi SSW 5.8 mph - N/A Snow Light Snow
5:55 AM 21.4 °F 12.8 °F 16.7 °F 82% 30.05 in 7.0 mi South 6.9 mph - N/A   Overcast
6:10 AM 21.9 °F 13.4 °F 16.9 °F 81% 30.05 in 10.0 mi South 6.9 mph - N/A   Overcast
6:34 AM 22.5 °F 14.1 °F 17.4 °F 81% 30.05 in 10.0 mi SSW 6.9 mph - N/A   Overcast
6:46 AM 22.6 °F 16.5 °F 17.6 °F 81% 30.06 in 10.0 mi SSW 4.6 mph - N/A   Overcast
7:14 AM 23.4 °F 15.2 °F 18.3 °F 81% 30.06 in 10.0 mi South 6.9 mph - N/A   Overcast
7:34 AM 23.7 °F 16.6 °F 18.5 °F 80% 30.06 in 10.0 mi SSW 5.8 mph - N/A   Overcast
7:53 AM 24.3 °F 15.4 °F 19.4 °F 82% 30.06 in 10.0 mi South 8.1 mph - N/A   Overcast
8:32 AM 30.9 °F 21.7 °F 26.1 °F 82% 30.06 in 10.0 mi West 11.5 mph - N/A   Overcast
8:55 AM 31.1 °F 20.1 °F 26.1 °F 82% 30.07 in 7.0 mi West 16.1 mph 20.7 mph N/A   Overcast
9:09 AM 31.1 °F 20.9 °F 26.1 °F 82% 30.07 in 7.0 mi West 13.8 mph 20.7 mph N/A   Overcast
9:34 AM 31.1 °F 20.5 °F 26.6 °F 83% 30.08 in 5.0 mi West 15.0 mph 24.2 mph N/A   Haze
9:55 AM 31.1 °F 20.5 °F 26.4 °F 83% 30.08 in 5.0 mi West 15.0 mph 26.5 mph N/A   Haze
10:14 AM 31.1 °F 20.9 °F 26.4 °F 83% 30.09 in 5.0 mi West 13.8 mph 19.6 mph N/A   Haze
10:35 AM 31.1 °F 20.9 °F 26.2 °F 82% 30.10 in 7.0 mi West 13.8 mph 20.7 mph N/A   Overcast
10:54 AM 31.5 °F 22.3 °F 26.2 °F 81% 30.10 in 7.0 mi West 11.5 mph 24.2 mph N/A   Overcast
11:15 AM 31.5 °F 23.5 °F 26.2 °F 81% 30.10 in 7.0 mi West 9.2 mph 20.7 mph N/A   Overcast
11:34 AM 31.6 °F 21.6 °F 26.2 °F 80% 30.10 in 7.0 mi WNW 13.8 mph - N/A   Overcast
11:55 AM 31.8 °F 22.3 °F 26.2 °F 80% 30.09 in 7.0 mi West 12.7 mph 20.7 mph N/A   Overcast
12:15 PM 31.8 °F 23.9 °F 26.1 °F 79% 30.09 in 7.0 mi West 9.2 mph 19.6 mph N/A   Overcast
12:34 PM 31.8 °F 23.9 °F 25.7 °F 78% 30.09 in 7.0 mi West 9.2 mph 20.7 mph N/A   Overcast
12:55 PM 32.0 °F 23.6 °F 26.1 °F 79% 30.08 in 7.0 mi West 10.4 mph 17.3 mph N/A   Overcast
1:14 PM 32.0 °F 23.6 °F 26.1 °F 79% 30.08 in 7.0 mi WNW 10.4 mph 16.1 mph N/A   Overcast
1:35 PM 31.6 °F 22.1 °F 25.7 °F 79% 30.09 in 7.0 mi West 12.7 mph 21.9 mph N/A   Overcast
1:54 PM 31.6 °F 22.6 °F 25.7 °F 79% 30.09 in 7.0 mi WNW 11.5 mph 20.7 mph N/A   Overcast
2:15 PM 31.6 °F 24.4 °F 25.3 °F 78% 30.10 in 7.0 mi WNW 8.1 mph 20.7 mph N/A   Overcast
2:34 PM 31.5 °F 22.3 °F 24.8 °F 76% 30.10 in 10.0 mi WNW 11.5 mph 21.9 mph N/A   Overcast
2:55 PM 31.1 °F 23.1 °F 24.3 °F 76% 30.11 in 10.0 mi West 9.2 mph 18.4 mph N/A   Overcast
3:15 PM 31.1 °F 21.9 °F 24.8 °F 77% 30.11 in 7.0 mi WNW 11.5 mph 19.6 mph N/A   Overcast
3:34 PM 31.1 °F 21.9 °F 24.4 °F 76% 30.12 in 7.0 mi WNW 11.5 mph 19.6 mph N/A   Overcast
3:55 PM 30.9 °F 21.7 °F 24.1 °F 76% 30.12 in 7.0 mi West 11.5 mph 19.6 mph N/A   Overcast
4:34 PM 31.1 °F 21.9 °F 24.3 °F 76% 30.14 in 10.0 mi West 11.5 mph 19.6 mph N/A   Overcast
4:55 PM 31.1 °F 21.9 °F 23.9 °F 75% 30.15 in 10.0 mi West 11.5 mph 18.4 mph N/A   Overcast
5:14 PM 31.1 °F 23.1 °F 24.8 °F 77% 30.15 in 10.0 mi West 9.2 mph 18.4 mph N/A   Overcast
5:35 PM 31.3 °F 22.7 °F 24.1 °F 75% 30.16 in 10.0 mi West 10.4 mph 16.1 mph N/A   Overcast
5:55 PM 31.1 °F 20.1 °F 24.3 °F 76% 30.16 in 10.0 mi West 16.1 mph 20.7 mph N/A   Overcast
6:14 PM 31.1 °F 22.4 °F 24.4 °F 76% 30.17 in 10.0 mi West 10.4 mph 18.4 mph N/A   Overcast
6:35 PM 31.5 °F 22.3 °F 24.3 °F 75% 30.17 in 10.0 mi WNW 11.5 mph 18.4 mph N/A   Overcast
6:54 PM 31.3 °F 22.7 °F 24.1 °F 75% 30.18 in 10.0 mi West 10.4 mph - N/A   Overcast
7:15 PM 31.6 °F 23.7 °F 23.9 °F 73% 30.18 in 10.0 mi West 9.2 mph 17.3 mph N/A   Overcast
7:35 PM 31.5 °F 22.3 °F 23.9 °F 74% 30.18 in 10.0 mi West 11.5 mph 17.3 mph N/A   Overcast
7:54 PM 31.5 °F 22.9 °F 23.9 °F 74% 30.19 in 10.0 mi WNW 10.4 mph 17.3 mph N/A   Overcast
8:15 PM 31.5 °F 24.2 °F 24.3 °F 75% 30.19 in 10.0 mi WNW 8.1 mph 16.1 mph N/A   Overcast
8:34 PM 31.5 °F 22.3 °F 23.9 °F 74% 30.19 in 10.0 mi WNW 11.5 mph - N/A   Overcast
8:55 PM 31.5 °F 22.9 °F 23.9 °F 74% 30.19 in 10.0 mi WNW 10.4 mph 17.3 mph N/A   Overcast
9:15 PM 31.5 °F 23.5 °F 24.4 °F 75% 30.19 in 10.0 mi WNW 9.2 mph - N/A   Overcast
9:34 PM 31.1 °F 21.4 °F 23.7 °F 74% 30.19 in 10.0 mi WNW 12.7 mph 17.3 mph N/A   Overcast
9:55 PM 31.1 °F 22.4 °F 23.9 °F 75% 30.19 in 10.0 mi West 10.4 mph - N/A   Overcast
10:14 PM 31.5 °F 22.3 °F 24.4 °F 75% 30.19 in 10.0 mi West 11.5 mph 17.3 mph N/A   Overcast
10:35 PM 30.9 °F 22.8 °F 23.9 °F 75% 30.19 in 10.0 mi West 9.2 mph 16.1 mph N/A   Overcast
10:55 PM 30.4 °F 22.9 °F 23.7 °F 76% 30.18 in 10.0 mi West 8.1 mph - N/A   Overcast
11:14 PM 29.8 °F 20.3 °F 23.9 °F 79% 30.19 in 10.0 mi WSW 11.5 mph 18.4 mph N/A   Overcast
11:35 PM 29.8 °F 20.9 °F 24.4 °F 80% 30.19 in 10.0 mi West 10.4 mph 21.9 mph N/A   Overcast
11:55 PM 29.7 °F 20.1 °F 24.1 °F 80% 30.18 in 10.0 mi West 11.5 mph 19.6 mph N/A   Overcast